Regional Weather Roundup
Issued by NWS

Home | Current Version | Previous Version | Graphics & Text | Print | Product List | Glossary On
Versions: 1 2 3 4 5 6 7 8 9 10 11 12 13 14 15 16 17 18 19 20 21 22 23 24 25 26 27 28 29 30 31 32 33 34 35 36 37 38 39 40 41 42 43 44 45 46 47 48 49 50
000
ASUS43 KMPX 051001
RWRMN
WEATHER ROUNDUP FOR MINNESOTA
NATIONAL WEATHER SERVICE TWIN CITIES/CHANHASSEN MN
500 AM CDT WED AUG 05 2015


NOTE: "FAIR" INDICATES FEW OR NO CLOUDS BELOW 12,000 FEET WITH NO
SIGNIFICANT WEATHER AND/OR OBSTRUCTIONS TO VISIBILITY. N/A MEANS
CURRENT SKY AND/OR WEATHER CONDITIONS ARE NOT AVAILABLE.

MNZ060>063-068>070-051100-
   Twin Cities Metro

CITY           SKY/WX    TMP DP  RH WIND       PRES   REMARKS
TWIN CITIES    CLEAR     64  57  78 NE5       30.04F
ST PAUL        CLEAR     61  56  83 E5        30.05S
CRYSTAL        CLEAR     60  57  89 CALM      30.03F
BLAINE         CLEAR     59  57  94 E5        30.05S
LAKEVILLE      CLEAR     54  52  94 CALM      30.05S
EDEN PRAIRIE   CLEAR     61  56  83 CALM      30.04R
SOUTH ST PAUL  CLEAR     62  56  82 CALM      30.05S
LAKE ELMO      FAIR      55  55 100 CALM      30.07S
$$
MNZ001>005-007-008-013>017-022>024-027-028-051100-
   Northwest Minnesota

CITY           SKY/WX    TMP DP  RH WIND       PRES   REMARKS
BEMIDJI        CLEAR     53  50  92 CALM      30.09R
HALLOCK        CLEAR     52  48  87 SE5       30.04S
ROSEAU         CLEAR     50  45  81 CALM      30.06S
WARROAD        CLEAR     54  48  82 SE3       30.07S
THIEF RVR FALL CLEAR     52  48  87 SE5       30.06S
CROOKSTON      PTCLDY    54  52  94 SE7       30.05S
FOSSTON        PTCLDY    54  48  82 SE6       30.07S
DETROIT LAKES  CLEAR     59  52  77 SE6       30.08R
MOORHEAD       PTCLDY    57  54  88 SE6       30.04S
PARK RAPIDS    PTCLDY    56  51  84 CALM      30.08S
MAHNOMEN       FAIR      57  53  86 SE6       30.06S
$$
MNZ006-009>011-018-025>026-051100-
   North Central Minnesota

CITY           SKY/WX    TMP DP  RH WIND       PRES   REMARKS
BAUDETTE       CLEAR     49  48  97 E5        30.07F
FLAG ISLAND    CLEAR     64  54  68 S7        30.06S
INTL FALLS     FOG       40  39  97 CALM      30.09S VSB 3/4
WASKISH        PTCLDY    45  45 100 E3        30.08S
BIG FORK       CLEAR     39  37  93 CALM      30.10S
LONGVILLE      CLEAR     46  46 100 CALM      30.09S
GRAND RAPIDS   PTCLDY    45  43  93 CALM      30.10S
CRANE LAKE     FAIR      41  41 100 CALM      30.12S
ORR            CLEAR     41  37  87 CALM      30.08S
COOK           CLEAR     39  39 100 CALM      30.11R
WALKER         FAIR      53  50  90 CALM      30.08F
$$
MNZ012-019>021-037-051100-
   Northeast Minnesota

CITY           SKY/WX    TMP DP  RH WIND       PRES   REMARKS
DULUTH         PTCLDY    52  49  89 N3        30.10R
ELY            MOCLDY    45  43  93 CALM      30.11R FOG
HIBBING        CLEAR     39  38  96 CALM      30.10S
EVELETH        CLOUDY    39  39 100 CALM      30.11S VSB 3/4
DULUTH HARBOR  CLEAR     54  52  94 E5        30.10R
TWO HARBORS    CLOUDY    54  48  82 CALM      30.08S
SILVER BAY     CLEAR     43  41  93 CALM      30.09R
GRAND MARAIS     N/A     56  50  80 CALM      30.08R
G MARAIS ARPRT CLEAR     46  43  87 N7        30.11R
$$
MNZ029>031-032-039>041-046>048-054>057-064-051100-
   West Central Minnesota

CITY           SKY/WX    TMP DP  RH WIND       PRES   REMARKS
FERGUS FALLS   PTCLDY    61  54  77 E5        30.04S
WHEATON        CLEAR     52  48  87 SE5       30.05S
MORRIS         CLEAR     54  52  94 SE5       30.04R
ALEXANDRIA     CLEAR     58  54  86 E5        30.07S
ELBOW LAKE     FAIR      60  55  85 E5        30.04S
WADENA         CLEAR     54  52  94 E5        30.07R
GLENWOOD       CLEAR     55  54  94 NE5       30.06S
APPLETON       CLEAR     55  52  88 CALM      30.03S
BENSON         CLEAR     52  48  87 CALM      30.04S
ORTONVILLE     PTCLDY    59  55  88 SE3       30.03S
MADISON        FOG       54  52  94 CALM      30.03F VSB 1
WILLMAR        FAIR      54  52  94 CALM      30.06S
$$
MNZ033>034-036-042>043-049>051-058-059-051100-
   Central Minnesota

CITY           SKY/WX    TMP DP  RH WIND       PRES   REMARKS
ST CLOUD       CLEAR     56  54  93 CALM      30.05F
SAUK CENTRE    FAIR      53  52  97 CALM      30.06S
PAYNESVILLE    CLEAR     50  50 100 CALM      30.06S
AITKIN         CLEAR     46  41  81 CALM      30.08R HAZE
PINE RIVER     CLEAR     48  48 100 CALM      30.11S
BRAINERD       CLEAR     53  52  96 CALM      30.08S
STAPLES        CLEAR     52  50  93 CALM      30.07F
LONG PRAIRIE   FAIR      54  50  87 CALM      30.07S
LITCHFIELD     CLEAR     57  57 100 CALM      30.05F
BUFFALO        CLEAR     57  54  88 CALM      30.05F
MAPLE LAKE     CLEAR     55  55 100 CALM      30.06F
$$
MNZ037-044-045-052-053-051100-
   East Central Minnesota

CITY           SKY/WX    TMP DP  RH WIND       PRES   REMARKS
PRINCETON      CLEAR     55  54  94 CALM      30.06F
MORA           CLEAR     52  50  93 CALM      30.09S
CAMBRIDGE      CLEAR     55  46  71 CALM      30.05S
RUSH CITY      MOCLDY    54  52  94 CALM      30.08R
MOOSE LAKE     MOCLDY    50  46  87 NE3       30.08R
HINCKLEY       FAIR      52  52 100 CALM      30.08S
CLOQUET        CLEAR     46  43  87 NW3       30.10R
MCGREGOR       CLEAR     46  45  93 CALM      30.09F
$$
MNZ071>073-080-081-089-090-097-098-051100-
   Southwest Minnesota

CITY           SKY/WX    TMP DP  RH WIND       PRES   REMARKS
MONTEVIDEO     PTCLDY    54  50  87 CALM      30.05F
GRANITE FALLS  PTCLDY    52  50  93 CALM      30.05F
CANBY          MOCLDY    53  51  92 NE3       30.05S
MARSHALL       MOCLDY    57  50  77 CALM      30.04F
REDWOOD FALLS  MOCLDY    57  54  89 CALM      30.04S
OLIVIA         PTCLDY    52  46  82 CALM      30.04S
PIPESTONE      MOCLDY    61  55  82 E3        30.04S
WINDOM         MOCLDY    54  52  94 CALM      30.05S
WORTHINGTON    MOCLDY    55  50  82 NE3       30.04S
JACKSON        PTCLDY    55  52  88 SE5       30.05S
SLAYTON        MOCLDY    55  54  95 CALM      30.06S
$$
MNZ065>067-074>077-082>085-091>093-051100-
   South Central Minnesota

CITY           SKY/WX    TMP DP  RH WIND       PRES   REMARKS
MANKATO        PTCLDY    61  52  72 CALM      30.05S
NEW ULM        MOCLDY    57  52  82 CALM      30.05R
ST JAMES       MOCLDY    54  52  94 CALM      30.05S
FAIRMONT       MOCLDY    54  46  76 CALM      30.04S
GLENCOE        CLEAR     55  53  93 CALM      30.05R
FARIBAULT      CLEAR     52  50  93 CALM      30.06S
OWATONNA       PTCLDY    54  50  87 CALM      30.06R
WASECA         PTCLDY    52  50  93 CALM      30.06S
ALBERT LEA     MOCLDY    54  54 100 CALM      30.06S
$$
MNZ078>079-086>088-094>096-051100-
   Southeast Minnesota

CITY           SKY/WX    TMP DP  RH WIND       PRES   REMARKS
ROCHESTER      CLEAR     56  52  86 W3        30.07S
RED WING       CLEAR     57  55  94 CALM      30.04S
STANTON        CLEAR     53  51  92 CALM      30.04S
DODGE CENTER   CLEAR     54  52  94 CALM      30.06S
WINONA         CLEAR     55  54  94 CALM      30.05S
AUSTIN         PTCLDY    54  52  94 CALM      30.06S
PRESTON        PTCLDY    57  51  81 CALM      30.07S
$$
ABBREVIATIONS USED IN REMARKS
   TC - TEMPERATURES IN CELSIUS
  WCI - WIND CHILL INDEX
   HX - HEAT INDEX
  VSB - VISIBILITY
$$


USA.gov is the U.S. government's official web portal to all federal, state and local government web resources and services.